Location: Potomac
(46.8816°N, 113.5795°W)
Time: 12:49:28
(UTC+00:00)

Gurwin Techsat 1B - Pass Details

Date: 01 July 2022
Orbit: 812 x 813 km, 98.8° (Epoch: 13 August)

Event Time Altitude Azimuth Distance (km) Brightness Sun altitude
Rises 10:25:10 0° 13° (NNE) 3,347 13.1 -10.5°
Reaches altitude 10° 10:27:31 10° 13° (NNE) 2,411 12.2 -10.3°
Maximum altitude 10:32:51 80° 287° (WNW) 830 8.6 -9.7°
Drops below altitude 10° 10:38:09 10° 201° (SSW) 2,394 10.5 -9.1°
Enters shadow 10:38:16 - 201° (SSW) 2,444 10.5 -9.1°
